Weather History for Sheldon, IA

Change the Weather History Date:

Thursday, January 24, 2013

  Actual Average Record
Temperature  
Mean Temperature 5 °F -  
Max Temperature 15 °F 27 °F 66 °F (1981)
Min Temperature -5 °F 8 °F -22 °F (1961)
Degree Days  
Heating Degree Days 60    
Moisture  
Dew Point -5 °F    
Average Humidity 62    
Maximum Humidity 68    
Minimum Humidity 57    
Precipitation  
Precipitation 0.00 in - - ()
Sea Level Pressure  
Sea Level Pressure 30.35 in    
Wind  
Wind Speed 13 mph (SE)    
Max Wind Speed 24 mph    
Max Gust Speed 26 mph    
Visibility 10 miles    
Events      
Averages and records for this station are not official NWS values.
T = Trace of Precipitation, MM = Missing Value Source: NWS Daily Summary

Daily Weather History Graph

Daily Weather History Graph

Search for Another Location

Airport:

Trip Planner

Search our weather history database for the weather conditions in past years. The results will help you decide how hot, cold, wet, or windy it might be!

Date:

Astronomy

Jan. 24, 2013 Rise Set
Actual Time 7:46 AM CST 5:25 PM CST
Civil Twilight 7:15 AM CST 5:56 PM CST
Nautical Twilight 6:40 AM CST 6:30 PM CST
Astronomical Twilight 6:07 AM CST 7:04 PM CST
Moon 3:27 PM CST (1/24) 5:45 AM CST (1/24)
Length of Visible Light 10h 40m
Length of Day
9h 39m
Waxing Gibbous, 94% of the Moon is Illuminated
Jan 24
Waxing Gibbous
Jan 26
Full
Feb 3
Last Quarter
Feb 10
New
Feb 17
First Quarter

Hourly Weather History & Observations

Time (CST) Temp. Windchill Dew Point Humidity Pressure Visibility Wind Dir Wind Speed Gust Speed Precip Events Conditions
12:15 AM -4.0 °F -22.1 °F -14.8 °F 60% 30.53 in 10.0 mi NNE 11.5 mph - N/A   Clear
12:35 AM -4.0 °F -22.1 °F -14.8 °F 60% 30.52 in 10.0 mi NNE 11.5 mph - N/A   Clear
12:55 AM -5.8 °F -24.4 °F -14.8 °F 65% 30.52 in 10.0 mi NNE 11.5 mph - N/A   Clear
1:15 AM -4.0 °F -21.2 °F -14.8 °F 60% 30.52 in 10.0 mi NNE 10.4 mph - N/A   Clear
1:35 AM -4.0 °F -17.8 °F -14.8 °F 60% 30.54 in 10.0 mi NE 6.9 mph - N/A   Clear
1:55 AM -4.0 °F -22.1 °F -14.8 °F 60% 30.54 in 10.0 mi NE 11.5 mph - N/A   Clear
2:15 AM -4.0 °F -22.1 °F -14.8 °F 60% 30.53 in 10.0 mi NE 11.5 mph - N/A   Clear
2:35 AM -4.0 °F -21.2 °F -13.0 °F 65% 30.54 in 10.0 mi NE 10.4 mph - N/A   Clear
2:55 AM -4.0 °F -17.8 °F -14.8 °F 60% 30.56 in 10.0 mi NE 6.9 mph - N/A   Clear
3:15 AM -4.0 °F -16.3 °F -14.8 °F 60% 30.57 in 10.0 mi NE 5.8 mph - N/A   Clear
3:35 AM -4.0 °F -20.2 °F -13.0 °F 65% 30.55 in 10.0 mi ENE 9.2 mph - N/A   Clear
3:55 AM -4.0 °F -19.0 °F -13.0 °F 65% 30.54 in 10.0 mi ENE 8.1 mph - N/A   Clear
4:15 AM -4.0 °F -16.3 °F -13.0 °F 65% 30.53 in 10.0 mi Variable 5.8 mph - N/A   Clear
4:35 AM -4.0 °F -14.6 °F -13.0 °F 65% 30.54 in 10.0 mi ENE 4.6 mph - N/A   Clear
4:55 AM -4.0 °F -16.3 °F -13.0 °F 65% 30.53 in 10.0 mi ENE 5.8 mph - N/A   Clear
5:15 AM -4.0 °F -17.8 °F -13.0 °F 65% 30.53 in 10.0 mi East 6.9 mph - N/A   Clear
5:35 AM -2.2 °F -15.6 °F -11.2 °F 66% 30.53 in 10.0 mi East 6.9 mph - N/A   Clear
5:55 AM -2.2 °F -18.0 °F -13.0 °F 60% 30.51 in - ENE 9.2 mph - N/A   Clear
6:15 AM -2.2 °F -18.0 °F -11.2 °F 66% 30.51 in 10.0 mi East 9.2 mph - N/A   Clear
6:35 AM -2.2 °F -18.9 °F -11.2 °F 66% 30.51 in 10.0 mi East 10.4 mph - N/A   Clear
6:55 AM -2.2 °F -19.9 °F -11.2 °F 66% 30.52 in 10.0 mi East 11.5 mph - N/A   Clear
7:15 AM -2.2 °F -19.9 °F -11.2 °F 66% 30.51 in 10.0 mi East 11.5 mph - N/A   Clear
7:35 AM -2.2 °F -21.5 °F -11.2 °F 66% 30.50 in 10.0 mi East 13.8 mph - N/A   Clear
7:55 AM -2.2 °F -21.5 °F -11.2 °F 66% 30.49 in 10.0 mi East 13.8 mph - N/A   Clear
8:15 AM -0.4 °F -17.6 °F -9.4 °F 66% 30.50 in 10.0 mi ESE 11.5 mph - N/A   Clear
8:35 AM -0.4 °F -19.2 °F -9.4 °F 66% 30.49 in 10.0 mi ESE 13.8 mph - N/A   Clear
8:55 AM -0.4 °F -18.4 °F -9.4 °F 66% 30.49 in 10.0 mi ESE 12.7 mph - N/A   Clear
9:15 AM -0.4 °F -18.4 °F -9.4 °F 66% 30.49 in 10.0 mi ESE 12.7 mph - N/A   Clear
9:35 AM 1.4 °F -16.1 °F -9.4 °F 61% 30.49 in 10.0 mi SE 12.7 mph - N/A   Clear
9:55 AM 1.4 °F -17.6 °F -7.6 °F 66% 30.47 in 10.0 mi ESE 15.0 mph - N/A   Clear
10:15 AM 3.2 °F -15.9 °F -7.6 °F 61% 30.46 in 10.0 mi SE 16.1 mph - N/A   Clear
10:35 AM 3.2 °F -17.1 °F -7.6 °F 61% 30.45 in 10.0 mi SE 18.4 mph - N/A   Clear
10:55 AM 5.0 °F -13.6 °F -5.8 °F 61% 30.45 in 10.0 mi SE 16.1 mph - N/A   Clear
11:15 AM 5.0 °F -13.0 °F -5.8 °F 61% 30.43 in 10.0 mi SE 15.0 mph 21.9 mph N/A   Clear
11:35 AM 5.0 °F -13.0 °F -4.0 °F 66% 30.44 in 10.0 mi SSE 15.0 mph - N/A   Clear
11:55 AM 6.8 °F -11.8 °F -4.0 °F 61% 30.42 in 10.0 mi SSE 17.3 mph 23.0 mph N/A   Clear
12:15 PM 6.8 °F -11.8 °F -4.0 °F 61% 30.41 in 10.0 mi SSE 17.3 mph - N/A   Clear
12:35 PM 6.8 °F -11.8 °F -4.0 °F 61% 30.39 in 10.0 mi SSE 17.3 mph - N/A   Clear
12:55 PM 8.6 °F -10.0 °F -2.2 °F 62% 30.37 in 10.0 mi SSE 18.4 mph - N/A   Clear
1:15 PM 8.6 °F -11.0 °F -2.2 °F 62% 30.33 in 10.0 mi SSE 20.7 mph - N/A   Clear
1:35 PM 10.4 °F -8.2 °F -2.2 °F 57% 30.32 in 10.0 mi SSE 19.6 mph - N/A   Clear
1:55 PM 10.4 °F -6.6 °F -0.4 °F 62% 30.32 in 10.0 mi SSE 16.1 mph 21.9 mph N/A   Clear
2:15 PM 10.4 °F -6.6 °F -2.2 °F 57% 30.30 in 10.0 mi SSE 16.1 mph - N/A   Clear
2:35 PM 10.4 °F -7.7 °F -0.4 °F 62% 30.28 in 10.0 mi SSE 18.4 mph - N/A   Clear
2:55 PM 10.4 °F -6.0 °F -0.4 °F 62% 30.27 in 10.0 mi SSE 15.0 mph 23.0 mph N/A   Clear
3:15 PM 10.4 °F -6.6 °F -0.4 °F 62% 30.26 in 10.0 mi SSE 16.1 mph - N/A   Partly Cloudy
3:35 PM 10.4 °F -7.7 °F -0.4 °F 62% 30.24 in 10.0 mi SE 18.4 mph 24.2 mph N/A   Mostly Cloudy
3:55 PM 12.2 °F -6.3 °F 1.4 °F 62% 30.22 in 10.0 mi SE 20.7 mph - N/A   Overcast
4:15 PM 12.2 °F -7.5 °F -0.4 °F 57% 30.20 in 10.0 mi SSE 24.2 mph - N/A   Overcast
4:35 PM 12.2 °F -6.7 °F 1.4 °F 62% 30.21 in 10.0 mi SSE 21.9 mph - N/A   Overcast
4:55 PM 12.2 °F -4.8 °F 1.4 °F 62% 30.20 in 10.0 mi SSE 17.3 mph 25.3 mph N/A   Overcast
5:15 PM 12.2 °F -4.8 °F 1.4 °F 62% 30.18 in 10.0 mi SSE 17.3 mph 24.2 mph N/A   Overcast
5:35 PM 12.2 °F -4.8 °F 1.4 °F 62% 30.17 in 10.0 mi SSE 17.3 mph 24.2 mph N/A   Overcast
5:55 PM 12.2 °F -5.3 °F 1.4 °F 62% 30.16 in 10.0 mi SSE 18.4 mph 26.5 mph N/A   Overcast
6:15 PM 12.2 °F -7.1 °F 1.4 °F 62% 30.15 in 10.0 mi SSE 23.0 mph - N/A   Overcast
6:35 PM 14.0 °F -2.5 °F 1.4 °F 57% 30.16 in 10.0 mi SSE 17.3 mph - N/A   Overcast
6:55 PM 14.0 °F -2.5 °F 1.4 °F 57% 30.17 in 10.0 mi SSE 17.3 mph - N/A   Overcast
7:15 PM 14.0 °F -0.8 °F 1.4 °F 57% 30.16 in 10.0 mi SE 13.8 mph 21.9 mph N/A   Overcast
7:35 PM 14.0 °F -2.0 °F 1.4 °F 57% 30.15 in 10.0 mi SE 16.1 mph - N/A   Overcast
7:55 PM 14.0 °F -3.4 °F 1.4 °F 57% 30.13 in 10.0 mi SSE 19.6 mph - N/A   Overcast
8:15 PM 14.0 °F -0.2 °F 3.2 °F 62% 30.15 in 10.0 mi South 12.7 mph 23.0 mph N/A   Overcast
8:35 PM 14.0 °F -0.2 °F 3.2 °F 62% 30.17 in 10.0 mi South 12.7 mph - N/A   Overcast
8:55 PM 14.0 °F -0.8 °F 3.2 °F 62% 30.15 in 10.0 mi South 13.8 mph 20.7 mph N/A   Overcast
9:15 PM 15.8 °F 0.9 °F 3.2 °F 58% 30.15 in 10.0 mi South 15.0 mph - N/A   Overcast
9:35 PM 15.8 °F 1.4 °F 5.0 °F 62% 30.14 in 10.0 mi South 13.8 mph - N/A   Overcast
9:55 PM 15.8 °F 2.7 °F 5.0 °F 62% 30.15 in 10.0 mi South 11.5 mph - N/A   Overcast
10:15 PM 15.8 °F 3.4 °F 5.0 °F 62% 30.14 in 10.0 mi South 10.4 mph 17.3 mph N/A   Overcast
10:35 PM 15.8 °F 3.4 °F 6.8 °F 68% 30.13 in 10.0 mi South 10.4 mph - N/A   Overcast
10:55 PM 15.8 °F 2.1 °F 5.0 °F 62% 30.11 in 10.0 mi South 12.7 mph - N/A   Overcast
11:15 PM 15.8 °F -1.1 °F 5.0 °F 62% 30.08 in 10.0 mi South 19.6 mph - N/A   Overcast
11:35 PM 15.8 °F 0.3 °F 5.0 °F 62% 30.09 in 10.0 mi SSW 16.1 mph 23.0 mph N/A   Mostly Cloudy
11:55 PM 15.8 °F -0.6 °F 5.0 °F 62% 30.07 in 10.0 mi South 18.4 mph - N/A   Overcast